TimePST,TemperatureF,Dew PointF,Humidity,Sea Level PressureIn,VisibilityMPH,Wind Direction,Wind SpeedMPH,Gust SpeedMPH,PrecipitationIn,Events,Conditions,WindDirDegrees,DateUTC
12:10 AM,35.6,35.6,100,30.27,10.0,Calm,Calm,-,N/A,,Overcast,0,2012-12-07 08:10:00
12:30 AM,35.6,33.8,93,30.26,10.0,Calm,Calm,-,N/A,,Overcast,0,2012-12-07 08:30:00
12:50 AM,35.6,33.8,93,30.27,10.0,Calm,Calm,-,N/A,,Overcast,0,2012-12-07 08:50:00
1:10 AM,35.6,33.8,93,30.26,10.0,Calm,Calm,-,N/A,,Overcast,0,2012-12-07 09:10:00
1:30 AM,35.6,33.8,93,30.26,10.0,Calm,Calm,-,N/A,,Overcast,0,2012-12-07 09:30:00
1:50 AM,35.6,35.6,100,30.26,10.0,Calm,Calm,-,N/A,,Overcast,0,2012-12-07 09:50:00
2:10 AM,35.6,35.6,100,30.26,10.0,Calm,Calm,-,N/A,,Overcast,0,2012-12-07 10:10:00
2:30 AM,35.6,35.6,100,30.26,10.0,Calm,Calm,-,N/A,,Overcast,0,2012-12-07 10:30:00
2:50 AM,35.6,33.8,93,30.26,10.0,NNE,4.6,-,N/A,,Overcast,30,2012-12-07 10:50:00
3:10 AM,35.6,33.8,93,30.26,10.0,NNE,3.5,-,N/A,,Overcast,20,2012-12-07 11:10:00
3:30 AM,35.6,33.8,93,30.26,10.0,Calm,Calm,-,N/A,,Overcast,0,2012-12-07 11:30:00
3:50 AM,35.6,33.8,93,30.25,10.0,NNE,4.6,-,N/A,,Overcast,20,2012-12-07 11:50:00
4:10 AM,35.6,33.8,93,30.25,10.0,Calm,Calm,-,N/A,,Overcast,0,2012-12-07 12:10:00
4:30 AM,35.6,32.0,87,30.24,10.0,Calm,Calm,-,N/A,,Overcast,0,2012-12-07 12:30:00
4:50 AM,35.6,32.0,87,30.24,10.0,Calm,Calm,-,N/A,,Overcast,0,2012-12-07 12:50:00
5:10 AM,35.6,32.0,87,30.24,10.0,Calm,Calm,-,N/A,,Overcast,0,2012-12-07 13:10:00
5:30 AM,35.6,32.0,87,30.24,10.0,Calm,Calm,-,N/A,,Overcast,0,2012-12-07 13:30:00
5:50 AM,35.6,32.0,87,30.25,10.0,Calm,Calm,-,N/A,,Overcast,0,2012-12-07 13:50:00
6:10 AM,35.6,32.0,87,30.25,10.0,Calm,Calm,-,N/A,,Overcast,0,2012-12-07 14:10:00
6:30 AM,35.6,32.0,87,30.25,10.0,SSW,3.5,-,N/A,,Overcast,200,2012-12-07 14:30:00
6:50 AM,35.6,32.0,87,30.26,10.0,ENE,4.6,-,N/A,,Overcast,60,2012-12-07 14:50:00
7:10 AM,35.6,32.0,87,30.26,10.0,Calm,Calm,-,N/A,,Overcast,0,2012-12-07 15:10:00
7:30 AM,35.6,32.0,87,30.26,10.0,Calm,Calm,-,N/A,,Overcast,0,2012-12-07 15:30:00
7:50 AM,35.6,32.0,87,30.26,10.0,NNE,3.5,-,N/A,,Overcast,30,2012-12-07 15:50:00
8:10 AM,35.6,32.0,87,30.26,10.0,NE,5.8,-,N/A,,Overcast,50,2012-12-07 16:10:00
8:30 AM,35.6,32.0,87,30.26,10.0,East,3.5,-,N/A,,Overcast,80,2012-12-07 16:30:00
8:50 AM,35.6,32.0,87,30.27,10.0,East,4.6,-,N/A,,Overcast,80,2012-12-07 16:50:00
9:10 AM,35.6,32.0,87,30.26,10.0,Calm,Calm,-,N/A,,Overcast,0,2012-12-07 17:10:00
9:30 AM,35.6,32.0,87,30.26,10.0,Calm,Calm,-,N/A,,Overcast,0,2012-12-07 17:30:00
9:50 AM,35.6,32.0,87,30.27,10.0,Calm,Calm,-,N/A,,Overcast,0,2012-12-07 17:50:00
10:10 AM,35.6,32.0,87,30.27,10.0,NE,3.5,-,N/A,,Overcast,50,2012-12-07 18:10:00
10:30 AM,35.6,32.0,87,30.26,10.0,East,3.5,-,N/A,,Overcast,80,2012-12-07 18:30:00
10:50 AM,37.4,32.0,81,30.26,10.0,Calm,Calm,-,N/A,,Overcast,0,2012-12-07 18:50:00
11:10 AM,37.4,32.0,81,30.25,10.0,ESE,3.5,-,N/A,,Overcast,110,2012-12-07 19:10:00
11:30 AM,37.4,32.0,81,30.24,10.0,East,3.5,-,N/A,,Overcast,80,2012-12-07 19:30:00
11:50 AM,37.4,32.0,81,30.23,10.0,Calm,Calm,-,N/A,,Overcast,0,2012-12-07 19:50:00
12:10 PM,39.2,32.0,75,30.23,10.0,East,3.5,-,N/A,,Overcast,80,2012-12-07 20:10:00
12:30 PM,39.2,32.0,75,30.22,10.0,Calm,Calm,-,N/A,,Overcast,0,2012-12-07 20:30:00
12:50 PM,39.2,32.0,75,30.21,10.0,ENE,3.5,-,N/A,,Scattered Clouds,60,2012-12-07 20:50:00
1:10 PM,39.2,32.0,75,30.21,10.0,Calm,Calm,-,N/A,,Clear,0,2012-12-07 21:10:00
1:30 PM,41.0,33.8,76,30.19,10.0,Calm,Calm,-,N/A,,Clear,0,2012-12-07 21:30:00
1:50 PM,41.0,35.6,81,30.19,10.0,East,3.5,-,N/A,,Clear,90,2012-12-07 21:50:00
2:10 PM,41.0,33.8,76,30.19,10.0,ENE,3.5,-,N/A,,Clear,70,2012-12-07 22:10:00
2:30 PM,42.8,33.8,70,30.18,10.0,Calm,Calm,-,N/A,,Clear,0,2012-12-07 22:30:00
2:50 PM,44.6,35.6,71,30.17,10.0,Calm,Calm,-,N/A,,Clear,0,2012-12-07 22:50:00
3:10 PM,42.8,35.6,76,30.18,10.0,Calm,Calm,-,N/A,,Clear,0,2012-12-07 23:10:00
3:30 PM,42.8,35.6,76,30.18,10.0,Calm,Calm,-,N/A,,Clear,0,2012-12-07 23:30:00
3:50 PM,41.0,37.4,87,30.18,10.0,Calm,Calm,-,N/A,,Clear,0,2012-12-07 23:50:00
4:10 PM,39.2,37.4,93,30.17,10.0,Calm,Calm,-,N/A,,Clear,0,2012-12-08 00:10:00
4:30 PM,39.2,37.4,93,30.17,4.0,Calm,Calm,-,N/A,,Clear,0,2012-12-08 00:30:00
4:50 PM,39.2,37.4,93,30.17,9.0,West,3.5,-,N/A,,Clear,270,2012-12-08 00:50:00
5:10 PM,37.4,35.6,93,30.18,9.0,West,3.5,-,N/A,,Clear,260,2012-12-08 01:10:00
5:30 PM,37.4,35.6,93,30.18,10.0,Calm,Calm,-,N/A,,Clear,0,2012-12-08 01:30:00
5:50 PM,35.6,35.6,100,30.19,10.0,WNW,3.5,-,N/A,,Clear,290,2012-12-08 01:50:00
6:50 PM,33.8,32.0,93,30.19,10.0,West,3.5,-,N/A,,Clear,280,2012-12-08 02:50:00
7:10 PM,32.0,32.0,100,30.20,10.0,West,3.5,-,N/A,,Clear,260,2012-12-08 03:10:00
7:30 PM,32.0,32.0,100,30.20,10.0,Calm,Calm,-,N/A,,Partly Cloudy,0,2012-12-08 03:30:00
7:50 PM,32.0,32.0,100,30.20,6.0,Calm,Calm,-,N/A,,Mostly Cloudy,0,2012-12-08 03:50:00
8:30 PM,32.0,32.0,100,30.21,10.0,Calm,Calm,-,N/A,,Mostly Cloudy,0,2012-12-08 04:30:00
8:50 PM,33.8,32.0,93,30.21,10.0,West,3.5,-,N/A,,Overcast,270,2012-12-08 04:50:00
9:10 PM,33.8,32.0,93,30.21,10.0,Calm,Calm,-,N/A,,Overcast,0,2012-12-08 05:10:00
9:30 PM,33.8,32.0,93,30.22,10.0,West,4.6,-,N/A,,Overcast,260,2012-12-08 05:30:00
9:50 PM,33.8,32.0,93,30.22,10.0,WNW,3.5,-,N/A,,Overcast,290,2012-12-08 05:50:00
10:10 PM,33.8,32.0,93,30.22,10.0,West,3.5,-,N/A,,Overcast,260,2012-12-08 06:10:00
10:30 PM,32.0,32.0,100,30.22,10.0,West,4.6,-,N/A,,Overcast,280,2012-12-08 06:30:00
10:50 PM,33.8,32.0,93,30.22,10.0,WNW,4.6,-,N/A,,Overcast,290,2012-12-08 06:50:00
11:10 PM,33.8,32.0,93,30.23,10.0,West,5.8,-,N/A,,Overcast,280,2012-12-08 07:10:00
11:30 PM,33.8,32.0,93,30.23,10.0,West,4.6,-,N/A,,Overcast,280,2012-12-08 07:30:00
11:50 PM,33.8,32.0,93,30.23,10.0,Calm,Calm,-,N/A,,Overcast,0,2012-12-08 07:50:00